Flag for U.S.A. Weather past 2 weeks in Montpelier, Vermont, U.S.A.

Now
74 °F

Sunny.


Feels Like: 77 °F
Forecast: 55 / 76 °F
Wind: 13 mph from South

Location: Knapp State Airport

Current Time: Aug 30, 2014 at 1:18:03 PM

Latest Report: Aug 30, 2014 at 12:51 PM


Visibility: 10 mi

Pressure: 30.19 "Hg

Humidity: 48%

Dew point: 53 °F

Location of MontpelierLocation

Historic Weather in Montpelier — Graph

°F

Montpelier temperature yesterday

Maximum temperature yesterday: 71 °F (at 2:51 PM)
Minimum temperature yesterday: 51 °F (at 5:51 AM)
Average temperature yesterday: 60 °F

Past Weeks' High & Low Weather Summary

 TemperatureHumidityPressure
High82 °F (Aug 26, 1:51 PM)100% (Aug 19, 1:51 AM)30.27 "Hg (Aug 19, 1:51 AM)
Low45 °F (Aug 19, 3:51 AM)35% (Aug 26, 1:51 PM)29.83 "Hg (Aug 17, 4:51 AM)
Average62 °F80%30.07 "Hg
* Reported Aug 15 11:51 AM — Aug 30 11:51 AM, Montpelier, Weather by CustomWeather, © 2014

Note: Actual official high and low records may vary slightly from our data, if they occured in-between our weather recording intervals... More about our weather records

Advertising

Montpelier weather history for previous 24 hours

 ConditionsComfort  
Time TempWeatherWind HumidityBarometerVisibility
11:51 AM
Aug 30
71 °FSunny.12 mph57%30.22 "Hg10 mi
10:51 AM69 °FSunny.10 mph59%30.24 "Hg10 mi
9:51 AM63 °FSunny.9 mph73%30.25 "Hg10 mi
8:51 AM62 °FSunny.9 mph75%30.25 "Hg10 mi
7:51 AM59 °FSunny.7 mph84%30.27 "Hg10 mi
6:51 AM57 °FClear.No wind87%30.27 "Hg10 mi
5:51 AM56 °FClear.No wind90%30.27 "Hg10 mi
4:51 AM58 °FClear.5 mph87%30.26 "Hg10 mi
3:51 AM58 °FClear.3 mph87%30.25 "Hg10 mi
2:51 AM51 °FFog.No wind100%30.26 "Hg5 mi
1:51 AM51 °FClear.No wind100%30.27 "Hg10 mi
12:51 AM52 °FClear.No wind100%30.27 "Hg8 mi
11:51 PM
Aug 29
53 °FClear.No wind93%30.26 "Hg10 mi
10:51 PM56 °FClear.No wind90%30.26 "Hg10 mi
9:51 PM55 °FClear.No wind90%30.26 "Hg10 mi
8:51 PM58 °FClear.No wind84%30.25 "Hg10 mi
7:51 PM61 °FSunny.No wind81%30.24 "Hg10 mi
6:51 PM67 °FSunny.3 mph66%30.23 "Hg10 mi
5:51 PM69 °FSunny.No wind61%30.22 "Hg10 mi
4:51 PM70 °FPassing clouds.5 mph53%30.22 "Hg10 mi
2:51 PM71 °FPassing clouds.3 mph51%30.23 "Hg10 mi
1:51 PM69 °FPassing clouds.No wind51%30.23 "Hg10 mi
Weather by CustomWeather, © 2014

See weather overviewHow to use our weather pages